COSMOS 2251 DEB, 33811

Orbit data source: Space-Track

COSMOS 2251 DEB, 33811 is space debris in LEO originally from a launch on Wed, 16 Jun 1993 UTC launched from the Plesetsk Missile And Space Complex (PKMTR). The debris from Iridium 33, an American commercial communications satellite, has been tracked extensively since its accidental collision with the defunct Russian satellite Cosmos 2251 in 2009. This event, occurring at high speed in low Earth orbit (LEO), generated thousands of pieces of space debris, significantly increasing the risk of further collisions. The Iridium 33 debris cloud has impacted space traffic management and orbital debris mitigation strategies, making it a subject of ongoing study in space situational awareness.

Loading next visibility...
Identifier
33811, 1993-036BC
Orbit
LEO
Country
Flag of CISCIS
Related business
Manufacturer
Unknown
Mission
Spacecraft
Bus & Motor
Unknown
Mass
Unknown
Launch date (UTC)
1993-06-16 (33 years ago)
Launch vehicle
Unknown
Launch site
Plesetsk Missile And Space Complex (PKMTR)
Object type
Payload
Rocket body
Debris
Shape & HBR
Unknown shape, 0.3 m
Radar Cross Section
Medium (>0.1 m² and <1 m²)

Expand to show TLE details & history
Last TLE update: 1 day ago

TLE from 1 day ago
0 COSMOS 2251 DEB
1 33811U 93036BC  26207.35480620  .00024104  00000-0  12848-2 0  9998
2 33811  73.8276 191.0724 0032759 233.8851 197.4048 15.14633436934242
Epoch: 2026-07-26T08:30Z
TLE epoch observation values (Epoch: 2026-07-26T08:30:55.255Z)
Latitude
65.47845°
Longitude
158.50424°
Altitude
554.611 km
Speed
7.579 km/s
True Right ascension
15h 21m 09s
True Declination
65° 20' 40"
Sunlit
Object was in daylight at epoch
Visualization orbit readout
Latitude
Unknown
Longitude
Unknown
Altitude
Unknown
Speed
Unknown
Apparent Right ascension
Unknown
Apparent Declination
Unknown
Sunlit
N/A
Visualization observer readout
Local Sidereal Time
23:14:00
Azimuth
Unknown
Elevation
Unknown
Doppler factor
Unknown
Orbital elements
Apogee altitude
542.244 km
Perigee altitude
497.051 km
Semi-major axis
6,897.785 km
Eccentricity
0.00328
Inclination
73.8276°
RAAN
191.0724°
Arg. of periapsis
233.8851°
True anomaly
197.29295°
Mean anomaly
197.4048°
Eccentric anomaly
197.34883°
Mean motion
3.7886 °/min
Orbital period
95.02 mins
BSTAR
0.0012848
Loading maneuver chart data...
Computing Atmospheric mass density...

Documentation

Showing up to 5 results
|